Location: Borea
(45.6167°N, 23.0167°E)
Time: 00:54:45
(UTC+00:00)

OPS 8068 - Pass Details

Date: 29 February 2024
Orbit: 631 x 963 km, 98.3° (Epoch: 13 April)

Event Time Altitude Azimuth Distance (km) Brightness Sun altitude
Rises 01:40:29 0° 116° (ESE) 2,955 ? -36.0°
Reaches altitude 10° 01:43:25 10° 94° (E) 2,085 ? -35.5°
Maximum altitude 01:46:05 16° 58° (ENE) 1,775 ? -35.1°
Drops below altitude 10° 01:48:51 10° 22° (NNE) 2,182 ? -34.7°
Sets 01:52:01 0° 1° (N) 3,172 ? -34.2°
